Cosmos 1953 Rocket - Orbit

View from above orbital plane
View from above orbital plane
View from above satellite
View from above satellite

Ground track
Ground track

The orbit data is extracted from the following two-line orbital elements,

1 19211U 88050B   13139.17933352  .00000404  00000-0  47707-4 0  9273
2 19211 082.5251 155.2037 0021445 348.6210 084.4435 14.82060006346011
Epoch (UTC): 19 May 2013 04:18:14
Eccentricity: 0.0021445
inclination: 82.5251°
perigee height: 608 km
apogee height: 638 km
right ascension of ascending node: 155.2037°
argument of perigee: 348.6210°
revolutions per day: 14.82060006
mean anomaly at epoch: 84.4435°
orbit number at epoch: 34601

The dashed part of the orbit path shows where the satellite is in the earth's shadow,  

Developed and maintained by Chris Peat, Heavens-Above GmbH. Please read the updated FAQ before sending e-mail. Imprint. DLR